EN

Hourly Weather Lachow

Today, 30 July, Friday

Time Temperature Precipitation Wind Pressure Humidity
00:00 +19°C° 0 mm 2 mps 738 mmHg 62%
01:00 +19°C° 0 mm 2 mps 737 mmHg 64%
02:00 +18°C° 0 mm 2 mps 737 mmHg 68%
03:00 +18°C° 0 mm 2 mps 737 mmHg 72%
04:00 +18°C° 0 mm 2 mps 737 mmHg 76%
05:00 +19°C° 0 mm 2 mps 737 mmHg 73%
06:00 +20°C° 0 mm 2 mps 737 mmHg 70%
07:00 +21°C° 0 mm 3 mps 737 mmHg 68%
08:00 +22°C° 0 mm 3 mps 737 mmHg 62%
09:00 +25°C° 0 mm 4 mps 737 mmHg 57%
10:00 +26°C° 0 mm 4 mps 737 mmHg 51%
11:00 +27°C° 0 mm 4 mps 737 mmHg 48%
12:00 +28°C° 0 mm 4 mps 737 mmHg 44%
13:00 +28°C° 0 mm 4 mps 736 mmHg 42%
14:00 +29°C° 0 mm 4 mps 736 mmHg 41%
15:00 +29°C° 0 mm 4 mps 736 mmHg 41%
16:00 +29°C° 0 mm 4 mps 736 mmHg 41%
17:00 +27°C° 0 mm 3 mps 735 mmHg 47%
18:00 +26°C° 0 mm 2 mps 735 mmHg 52%
19:00 +24°C° 0 mm 1 mps 735 mmHg 58%
20:00 +23°C° 0 mm 1 mps 735 mmHg 58%
21:00 +22°C° 0 mm 1 mps 736 mmHg 59%
22:00 +21°C° 0 mm 1 mps 736 mmHg 59%
23:00 +21°C° 0 mm 1 mps 736 mmHg 59%

Tomorrow, 31 July, Saturday

Time Temperature Precipitation Wind Pressure Humidity
00:00 +21°C° 0 mm 1 mps 735 mmHg 60%
01:00 +20°C° 0 mm 1 mps 735 mmHg 61%
02:00 +20°C° 0 mm 1 mps 735 mmHg 62%
03:00 +19°C° 0 mm 2 mps 735 mmHg 63%
04:00 +19°C° 0 mm 2 mps 735 mmHg 65%
05:00 +20°C° 0 mm 2 mps 735 mmHg 64%
06:00 +23°C° 0 mm 2 mps 735 mmHg 64%
07:00 +24°C° 0 mm 2 mps 735 mmHg 63%
08:00 +26°C° 0 mm 3 mps 735 mmHg 59%
09:00 +27°C° 0 mm 3 mps 735 mmHg 55%
10:00 +29°C° 0 mm 3 mps 735 mmHg 50%
11:00 +28°C° 0.2 mm 4 mps 735 mmHg 56%
12:00 +27°C° 0.2 mm 4 mps 735 mmHg 62%
13:00 +25°C° 0.2 mm 5 mps 735 mmHg 67%
14:00 +23°C° 0.7 mm 5 mps 735 mmHg 73%
15:00 +22°C° 0.7 mm 4 mps 735 mmHg 79%
16:00 +21°C° 0.7 mm 4 mps 735 mmHg 84%
17:00 +21°C° 0.1 mm 4 mps 735 mmHg 84%
18:00 +21°C° 0.1 mm 3 mps 735 mmHg 84%
19:00 +20°C° 0.1 mm 3 mps 735 mmHg 84%
20:00 +20°C° 0 mm 3 mps 735 mmHg 85%
21:00 +19°C° 0 mm 3 mps 736 mmHg 85%
22:00 +18°C° 0 mm 2 mps 736 mmHg 85%
23:00 +18°C° 0 mm 2 mps 736 mmHg 82%

Day after tomorrow, 1 August, Sunday

Time Temperature Precipitation Wind Pressure Humidity
00:00 +18°C° 0 mm 2 mps 736 mmHg 79%
01:00 +18°C° 0 mm 1 mps 736 mmHg 76%
02:00 +18°C° 0 mm 1 mps 736 mmHg 76%
03:00 +16°C° 0 mm 0 mps 736 mmHg 75%
04:00 +15°C° 0 mm 0 mps 736 mmHg 75%
05:00 +16°C° 0 mm 0 mps 736 mmHg 72%
06:00 +20°C° 0 mm 1 mps 736 mmHg 68%
07:00 +21°C° 0 mm 1 mps 736 mmHg 65%
08:00 +21°C° 0 mm 2 mps 736 mmHg 63%
09:00 +23°C° 0 mm 2 mps 735 mmHg 61%
10:00 +24°C° 0 mm 3 mps 735 mmHg 59%
11:00 +22°C° 0.2 mm 3 mps 735 mmHg 64%
12:00 +22°C° 0.2 mm 3 mps 735 mmHg 69%
13:00 +21°C° 0.2 mm 3 mps 735 mmHg 74%
14:00 +20°C° 1 mm 4 mps 735 mmHg 78%
15:00 +19°C° 1 mm 4 mps 735 mmHg 82%
16:00 +17°C° 1 mm 5 mps 735 mmHg 86%
17:00 +18°C° 0.9 mm 4 mps 735 mmHg 88%
18:00 +17°C° 0.9 mm 3 mps 735 mmHg 90%
19:00 +17°C° 0.9 mm 2 mps 735 mmHg 92%
20:00 +17°C° 0.2 mm 2 mps 735 mmHg 92%
21:00 +16°C° 0.2 mm 2 mps 735 mmHg 92%
22:00 +16°C° 0.2 mm 2 mps 735 mmHg 93%
23:00 +16°C° 0 mm 2 mps 735 mmHg 92%

2 August, Monday

Time Temperature Precipitation Wind Pressure Humidity
00:00 +16°C° 0 mm 2 mps 735 mmHg 91%
01:00 +16°C° 0 mm 2 mps 735 mmHg 91%
02:00 +16°C° 0.1 mm 2 mps 735 mmHg 91%
03:00 +16°C° 0.1 mm 2 mps 735 mmHg 91%
04:00 +15°C° 0.1 mm 2 mps 735 mmHg 91%
05:00 +15°C° 0.9 mm 2 mps 735 mmHg 92%
06:00 +15°C° 0.9 mm 2 mps 735 mmHg 94%
07:00 +14°C° 0.9 mm 3 mps 736 mmHg 96%
08:00 +17°C° 0.4 mm 3 mps 736 mmHg 89%
09:00 +18°C° 0.4 mm 3 mps 736 mmHg 82%
10:00 +19°C° 0.4 mm 3 mps 737 mmHg 76%
11:00 +20°C° 0.3 mm 4 mps 737 mmHg 71%
12:00 +21°C° 0.3 mm 4 mps 737 mmHg 67%
13:00 +21°C° 0.3 mm 5 mps 737 mmHg 63%
14:00 +21°C° 0.4 mm 5 mps 737 mmHg 65%
15:00 +21°C° 0.4 mm 4 mps 737 mmHg 68%
16:00 +21°C° 0.4 mm 4 mps 737 mmHg 70%
17:00 +20°C° 0.5 mm 4 mps 737 mmHg 74%
18:00 +19°C° 0.5 mm 3 mps 737 mmHg 78%
19:00 +18°C° 0.5 mm 3 mps 737 mmHg 83%
20:00 +17°C° 0 mm 3 mps 738 mmHg 85%
21:00 +16°C° 0 mm 3 mps 738 mmHg 88%
22:00 +14°C° 0 mm 3 mps 738 mmHg 90%
23:00 +14°C° 0 mm 3 mps 739 mmHg 91%

3 August, Tuesday

Time Temperature Precipitation Wind Pressure Humidity
00:00 +15°C° 0 mm 2 mps 739 mmHg 92%
01:00 +14°C° 0 mm 2 mps 739 mmHg 93%
02:00 +14°C° 0 mm 2 mps 739 mmHg 93%
03:00 +14°C° 0 mm 2 mps 740 mmHg 93%
04:00 +14°C° 0 mm 2 mps 740 mmHg 93%
05:00 +15°C° 0 mm 2 mps 740 mmHg 89%
06:00 +16°C° 0 mm 2 mps 740 mmHg 85%
07:00 +17°C° 0 mm 2 mps 741 mmHg 81%
08:00 +19°C° 0 mm 2 mps 741 mmHg 72%
09:00 +20°C° 0 mm 2 mps 741 mmHg 64%
10:00 +21°C° 0 mm 2 mps 741 mmHg 55%
11:00 +23°C° 0 mm 2 mps 741 mmHg 52%
12:00 +24°C° 0 mm 2 mps 740 mmHg 50%
13:00 +25°C° 0 mm 2 mps 740 mmHg 47%
14:00 +24°C° 0 mm 1 mps 740 mmHg 51%
15:00 +24°C° 0 mm 1 mps 740 mmHg 55%
16:00 +23°C° 0 mm 1 mps 740 mmHg 59%
17:00 +22°C° 0 mm 1 mps 739 mmHg 62%
18:00 +21°C° 0 mm 2 mps 739 mmHg 66%
19:00 +20°C° 0 mm 2 mps 739 mmHg 69%
20:00 +19°C° 0 mm 2 mps 739 mmHg 71%
21:00 +18°C° 0 mm 3 mps 739 mmHg 74%
22:00 +17°C° 0 mm 3 mps 739 mmHg 76%
23:00 +17°C° 0 mm 3 mps 738 mmHg 78%

4 August, Wednesday

Time Temperature Precipitation Wind Pressure Humidity
00:00 +17°C° 0 mm 3 mps 738 mmHg 80%
01:00 +16°C° 0 mm 3 mps 738 mmHg 83%
02:00 +16°C° 1.2 mm 3 mps 738 mmHg 87%
03:00 +16°C° 1.2 mm 3 mps 738 mmHg 91%
04:00 +16°C° 1.2 mm 2 mps 738 mmHg 96%
05:00 +16°C° 0.8 mm 2 mps 738 mmHg 94%
06:00 +17°C° 0.8 mm 2 mps 738 mmHg 93%
07:00 +17°C° 0.8 mm 2 mps 738 mmHg 91%
08:00 +18°C° 0.1 mm 3 mps 737 mmHg 84%
09:00 +20°C° 0.1 mm 3 mps 737 mmHg 76%
10:00 +21°C° 0.1 mm 4 mps 737 mmHg 68%
11:00 +22°C° 0 mm 4 mps 737 mmHg 61%
12:00 +23°C° 0 mm 4 mps 737 mmHg 54%
13:00 +25°C° 0 mm 4 mps 737 mmHg 47%
14:00 +25°C° 0 mm 3 mps 737 mmHg 47%
15:00 +25°C° 0 mm 3 mps 737 mmHg 47%
16:00 +25°C° 0 mm 3 mps 736 mmHg 47%
17:00 +24°C° 0 mm 3 mps 736 mmHg 54%
18:00 +21°C° 0 mm 2 mps 736 mmHg 62%
19:00 +19°C° 0 mm 2 mps 736 mmHg 70%
20:00 +19°C° 0 mm 2 mps 736 mmHg 72%
21:00 +19°C° 0 mm 1 mps 736 mmHg 75%
22:00 +18°C° 0 mm 1 mps 736 mmHg 78%
23:00 +18°C° 0 mm 1 mps 736 mmHg 78%
Show more